Regional Weather Roundup
Issued by NWS

Home | Current Version | Previous Version | Text Only | Print | Product List | Glossary Off
Versions: 1 2 3 4 5 6 7 8 9 10 11 12 13 14 15 16 17 18 19 20 21 22 23 24 25 26 27 28 29 30 31 32 33 34 35 36 37 38 39 40 41 42 43 44 45 46 47 48 49 50

630
ASUS45 KPSR 190310
RWRAZ

ARIZONA HOURLY REGIONAL WEATHER ROUNDUP
NATIONAL WEATHER SERVICE PHOENIX AZ
800 PM MST MON SEP 18 2017

NOTE: FAIR INDICATES FEW OR NO CLOUDS BELOW 12,000 FEET WITH NO
SIGNIFICANT WEATHER AND/OR OBSTRUCTIONS TO VISIBILITY.

AZZ001>003-036-190400-
NORTHWEST ARIZONA

CITY           SKY/WX    TMP DP  RH WIND       PRES   REMARKS
BULLHEAD CITY  CLEAR     91  39  16 S17       29.73S
KINGMAN        CLEAR     70  38  31 S9        29.95R
$$

AZZ004>008-015-016-018-190400-
NORTH CENTRAL ARIZONA

CITY           SKY/WX    TMP DP  RH WIND       PRES   REMARKS
GRAND CANYON   CLEAR     61  22  22 SW10      30.14S
WILLIAMS       CLEAR     59  19  21 S8        30.17R
PRESCOTT       CLEAR     66  28  24 CALM      30.08R
FLAGSTAFF      CLEAR     59  20  22 W8        30.18R
PAYSON           N/A     66  19  16 CALM      30.10S
PAGE           CLEAR     81  22  11 SW14G22   29.90R
$$

AZZ009>014-017-190400-
NORTHEAST ARIZONA

CITY           SKY/WX    TMP DP  RH WIND       PRES   REMARKS
WINSLOW        CLEAR     65  14  14 SW9       30.06R
SAINT JOHNS    CLEAR     66  27  23 SW6       30.12R
WINDOW ROCK    CLEAR     60  19  20 S3        30.16R
SHOW LOW       CLEAR     63  25  23 SW10      30.17S
$$

AZZ540-542>544-546-548-190400-
GREATER PHOENIX AREA

CITY           SKY/WX    TMP DP  RH WIND       PRES   REMARKS
PHOENIX        CLEAR     93  33  12 NW5       29.79R
BUCKEYE          N/A     84  28  13 CALM      29.80R
GLENDALE       CLEAR     88  43  20 CALM      29.81R
LUKE AFB       CLEAR     88  31  13 CALM      29.80R
DEER VALLEY    CLEAR     86  31  13 CALM      29.82R
SCOTTSDALE     CLEAR     88  32  13 CALM      29.84R
MESA-FALCON    CLEAR     90  34  13 N5        29.82R
MESA-GATEWAY   CLEAR     84  30  14 NW3       29.83R
CHANDLER       CLEAR     90  32  12 W6        29.81R
$$

AZZ539-553-190400-
SOUTHWEST MARICOPA COUNTY AND PINAL COUNTY

CITY           SKY/WX    TMP DP  RH WIND       PRES   REMARKS
CASA GRANDE    NOT AVBL
GILA BEND      CLEAR     88  36  16 SW7       29.78R
$$

AZZ503-504-507>509-190400-
SOUTHEAST ARIZONA

CITY           SKY/WX    TMP DP  RH WIND       PRES   REMARKS
TUCSON         CLEAR     86  44  23 W6        29.94R
DAVIS-MONTHAN  CLEAR     83  45  25 W3        29.92R
RYAN FIELD     CLEAR     84  46  26 S7        29.92R
NOGALES        CLEAR     77  52  41 CALM      30.03R
SIERRA VISTA   CLEAR     77  49  37 SW6       30.09R
DOUGLAS        CLEAR     75  45  34 SW7       30.04R
SAFFORD        CLEAR     82  34  17 NW9       29.93R
$$

AZZ532-190400-
SOUTHWEST ARIZONA

CITY           SKY/WX    TMP DP  RH WIND       PRES   REMARKS
YUMA           NOT AVBL
$$

CAZ041-043-047-048-061-525>527-560>570-190400-
SOUTHERN CALIFORNIA

CITY           SKY/WX    TMP DP  RH WIND       PRES   REMARKS
DOWNTOWN L.A.  CLOUDY    68  61  78 W5        29.90R
L.A. AIRPORT   CLOUDY    67  62  84 W9        29.91R
SAN DIEGO      PTCLDY    69  60  73 NW7       29.92S
BURBANK        CLEAR     64  59  83 S10       29.90R
ONTARIO        CLEAR     69  59  70 W7        29.91R
RIVERSIDE      CLEAR     70  60  70 W8        29.90R
PALM SPRINGS   CLEAR     89  52  28 NW16      29.78R
IMPERIAL       CLEAR     87  56  34 W6        29.72R
BLYTHE         CLEAR     90  44  20 SW6       29.74R
NEEDLES        CLEAR     91  31  11 S8        29.77R
$$

NVZ020-UTZ003-190400-
SOUTHERN NEVADA-UTAH

CITY           SKY/WX    TMP DP  RH WIND       PRES   REMARKS
LAS VEGAS      CLEAR     87  38  17 S10       29.76F
SALT LAKE CITY MOCLDY    78  35  21 S18G28    29.68F
$$

NMZ009-TXZ055-190400-
NEW MEXICO-WEST TEXAS

CITY           SKY/WX    TMP DP  RH WIND       PRES   REMARKS
ALBUQUERQUE    PTCLDY    71  34  25 SE8       30.04R
EL PASO        MOCLDY    84  41  21 W6        29.99S
$$


........................KEY........................
SKY/WX - SKY CONDITION/WEATHER
TMP    - TEMPERATURE IN FAHRENHEIT
DP     - DEW POINT IN FAHRENHEIT
RH     - RELATIVE HUMIDITY IN PERCENT
WIND   - DIRECTION AND SPEED IN MILES PER HOUR (MPH)
VRB    - VARIABLE WIND DIRECTION
PRES   - MEAN SEA LEVEL PRESSURE IN INCHES OF MERCURY
         F - FALLING PRESSURE   R - RISING PRESSURE
         S - STEADY PRESSURE
VSB    - VISIBILITY IN MILES
HX     - HEAT INDEX IN FAHRENHEIT
WCI    - WIND CHILL INDEX IN FAHRENHEIT
TC     - TEMPERATURE IN CELSIUS WHICH IS ALSO KNOWN AS
         TEMPERATURE IN CENTIGRADE
AFB    - AIR FORCE BASE
         LUKE AFB IS LUKE AIR FORCE BASE
         DAVIS-MONTHAN IS DAVIS-MONTHAN AIR FORCE BASE
NAS    - NAVAL AIR STATION
         EL CENTRO NAS IS EL CENTRO NAVAL AIR STATION
N/A    - NOT AVAILABLE





USA.gov is the U.S. government's official web portal to all federal, state and local government web resources and services.